Location: Passau
(48.5830°N, 13.4830°E)
Time: 21:22:42
(UTC+02:00)

Vanguard 3 - Pass Details

Date: 25 May 2024
Orbit: 509 x 3231 km, 33.3° (Epoch: 16 June)

Event Time Altitude Azimuth Distance (km) Brightness Sun altitude
Rises 01:15:14 0° 269° (W) 5,765 11.5 -20.4°
Reaches altitude 10° 01:19:53 10° 256° (WSW) 5,162 11.0 -20.3°
Maximum altitude 01:30:44 23° 213° (SSW) 4,844 10.5 -20.1°
Enters shadow 01:32:35 22° 205° (SSW) 4,945 10.5 -20.1°
Drops below altitude 10° 01:43:35 10° 171° (S) 6,153 - -19.8°
Sets 01:50:04 0° 159° (SSE) 7,123 - -19.6°
